Weather reports worldwide

Advertisment
Wittering, United Kingdom (3462): temperature & dewpoint: 12.01.2020 12:00:00 - 18.01.2020 12:00:00 (GMT)Wittering, United Kingdom (3462): temperature -20cm & temperature -100cm: 12.01.2020 12:00:00 - 18.01.2020 12:00:00 (GMT)Wittering, United Kingdom (3462): wind speed & gusts: 12.01.2020 12:00:00 - 18.01.2020 12:00:00 (GMT)Wittering, United Kingdom (3462): wind direction: 12.01.2020 12:00:00 - 18.01.2020 12:00:00 (GMT)Wittering, United Kingdom (3462): reduced air pressure: 12.01.2020 12:00:00 - 18.01.2020 12:00:00 (GMT)Wittering, United Kingdom (3462): visibility: 12.01.2020 12:00:00 - 18.01.2020 12:00:00 (GMT)Wittering, United Kingdom (3462): sunshine duration: 12.01.2020 12:00:00 - 18.01.2020 12:00:00 (GMT)Wittering, United Kingdom (3462): precipitation: 12.01.2020 12:00:00 - 18.01.2020 12:00:00 (GMT)
Date & Time tt [°C] td [°C] tt -20cm [°C] tt -100cm [°C] ff [km/h] ff [kn] fx [km/h] fx [kn] dd ppp [hPa] vv [km] sd [min] rr [mm]
18.01.2020 12:00:00 - - - - - - - - - - - - -
18.01.2020 11:00:00 5,0 2,0 - - 21 11 - - WNW 1026,3 24 60 0,0
18.01.2020 10:00:00 3,0 1,0 - - 21 11 - - W 1025,7 19 60 0,0
18.01.2020 09:00:00 1,9 0,2 5,9 7,7 24 13 - - W 1024,8 16 6 0,0
18.01.2020 08:00:00 0,9 -0,5 - - 21 11 - - W 1024,2 19 0 0,0
18.01.2020 07:00:00 0,9 -0,3 - - 18 10 - - W 1023,3 21 0 0,0
18.01.2020 06:00:00 1,3 0,2 - - 21 11 - - WSW 1022,2 22 0 0,0
18.01.2020 05:00:00 1,4 0,2 - - 21 11 - - W 1021,3 20 0 0,0
18.01.2020 04:00:00 1,8 0,2 - - 18 10 - - W 1020,7 28 0 0,0
18.01.2020 03:00:00 2,6 0,9 - - 29 16 - - W 1020,3 30 0 0,0
18.01.2020 02:00:00 2,1 1,1 - - 22 12 - - WSW 1019,5 23 0 0,0
18.01.2020 01:00:00 2,2 1,1 - - 21 11 - - WSW 1018,9 18 0 0,0
18.01.2020 00:00:00 2,7 1,7 - - 18 10 - - W 1018,2 20 - 0,0
17.01.2020 23:00:00 2,8 1,7 - - 24 13 - - WSW 1017,0 28 0 0,0
17.01.2020 22:00:00 3,1 1,6 - - 21 11 - - WSW 1016,5 45 0 0,0
17.01.2020 21:00:00 3,5 1,7 - - 22 12 - - WSW 1015,7 35 0 0,0
17.01.2020 20:00:00 3,8 1,7 - - 28 15 - - SW 1015,3 45 0 0,0
17.01.2020 19:00:00 4,1 1,9 - - 21 11 - - SW 1014,7 40 0 0,0
17.01.2020 18:00:00 4,5 2,1 - - 21 11 - - SW 1014,0 45 0 0,0
17.01.2020 17:00:00 4,7 2,2 - - 18 10 - - SW 1013,4 35 0 0,0
17.01.2020 16:00:00 4,8 2,1 - - 24 13 - - WSW 1012,5 10 6 0,0
17.01.2020 15:00:00 5,0 2,2 - - 26 14 50 27 W 1011,4 10 0 0,0
17.01.2020 14:00:00 4,7 2,9 - - 35 19 59 32 W 1010,1 27 0 0,2
17.01.2020 13:00:00 4,6 2,9 - - 37 20 55 30 W 1008,6 10 0 0,6
17.01.2020 12:00:00 8,1 5,1 - - 26 14 - - SW 1007,0 10 6 0,0
17.01.2020 11:00:00 8,4 5,6 - - 29 16 - - SW 1006,8 21 30 0,0
17.01.2020 10:00:00 7,8 5,8 - - 24 13 - - SSW 1006,7 10 36 0,0
17.01.2020 09:00:00 7,3 5,9 7,2 7,7 22 12 - - S 1006,3 10 0 0,0
17.01.2020 08:00:00 8,2 6,9 - - 22 12 - - S 1005,8 30 0 0,0
17.01.2020 07:00:00 8,5 7,2 - - 21 11 - - S 1005,8 15 0 0,0
17.01.2020 06:00:00 8,2 7,5 - - 13 7 - - SSE 1006,0 10 0 0,0
17.01.2020 05:00:00 8,2 7,2 - - 15 8 - - S 1006,4 9 0 0,0
17.01.2020 04:00:00 8,7 7,6 - - 18 10 - - S 1006,4 10 0 0,0
17.01.2020 03:00:00 8,6 7,5 - - 15 8 - - S 1007,0 12 0 0,0
17.01.2020 02:00:00 9,0 7,9 - - 15 8 - - S 1007,5 11 0 0,0
17.01.2020 01:00:00 9,5 8,2 - - 16 9 - - SSW 1007,5 13 0 0,0
17.01.2020 00:00:00 10,1 8,6 - - 24 13 - - SSW 1007,2 17 - 0,0
16.01.2020 23:00:00 10,3 8,8 - - 24 13 - - SSW 1007,0 23 0 0,0
16.01.2020 22:00:00 10,7 8,8 - - 26 14 48 26 SSW 1006,7 40 0 0,0
16.01.2020 21:00:00 10,8 9,2 - - 31 17 55 30 S 1006,5 45 0 0,2
16.01.2020 20:00:00 11,0 8,9 - - 34 18 50 27 S 1006,3 30 0 0,0
16.01.2020 19:00:00 11,4 8,1 - - 31 17 54 29 S 1006,1 30 0 0,0
16.01.2020 18:00:00 10,8 7,7 - - 34 18 48 26 S 1005,9 40 0 0,0
16.01.2020 17:00:00 9,9 7,2 - - 31 17 50 27 S 1006,4 28 0 0,0
16.01.2020 16:00:00 9,8 7,0 - - 34 18 55 30 S 1007,2 26 0 0,0
16.01.2020 15:00:00 9,6 7,0 - - 35 19 55 30 SSE 1008,0 10 0 0,0
16.01.2020 14:00:00 9,2 7,1 - - 35 19 55 30 S 1009,2 35 0 0,0
16.01.2020 13:00:00 8,3 6,1 - - 34 18 46 25 SSE 1010,9 10 0 0,0
16.01.2020 12:00:00 8,6 6,1 - - 28 15 - - SSE 1012,1 25 18 0,0
16.01.2020 11:00:00 7,3 5,8 - - 22 12 - - SSE 1014,1 20 0 0,0
16.01.2020 10:00:00 6,3 5,1 - - 26 14 46 25 SSE 1015,1 10 0 0,0
16.01.2020 09:00:00 5,9 4,8 6,4 7,7 29 16 - - SSE 1015,1 14 0 0,0
16.01.2020 08:00:00 5,7 4,5 - - 24 13 - - S 1015,7 15 0 0,0
16.01.2020 07:00:00 5,9 4,8 - - 21 11 - - SSE 1016,2 14 0 0,0
16.01.2020 06:00:00 5,7 4,8 - - 24 13 - - S 1016,5 13 0 0,0
16.01.2020 05:00:00 4,9 4,2 - - 15 8 - - S 1016,8 12 0 0,0
16.01.2020 04:00:00 4,1 3,0 - - 15 8 - - S 1017,4 13 0 0,0
16.01.2020 03:00:00 4,7 3,5 - - 16 9 - - S 1017,2 16 0 0,0
16.01.2020 02:00:00 4,8 3,2 - - 24 13 - - SSW 1016,7 17 0 0,0
16.01.2020 01:00:00 4,9 3,1 - - 22 12 - - SSW 1016,4 20 0 0,0
16.01.2020 00:00:00 5,0 2,8 - - 24 13 - - SSW 1015,9 20 - 0,0
15.01.2020 23:00:00 4,7 2,3 - - 22 12 - - SSW 1015,3 21 0 0,0
15.01.2020 22:00:00 5,2 2,6 - - 22 12 - - SSW 1014,6 26 0 0,0
15.01.2020 21:00:00 5,6 3,1 - - 22 12 - - SSW 1013,8 22 0 0,0
15.01.2020 20:00:00 5,4 3,0 - - 22 12 - - SSW 1012,7 23 0 0,0
15.01.2020 19:00:00 5,7 2,9 - - 24 13 - - SSW 1012,0 30 0 0,0
15.01.2020 18:00:00 5,9 2,9 - - 22 12 - - SW 1010,7 35 0 0,0
15.01.2020 17:00:00 6,4 3,5 - - 22 12 - - SSW 1009,3 27 0 0,0
15.01.2020 16:00:00 7,0 3,4 - - 24 13 48 26 SW 1008,1 10 24 0,2
15.01.2020 15:00:00 8,2 3,5 - - 28 15 - - SW 1006,4 35 60 0,0
15.01.2020 14:00:00 8,3 4,1 - - 26 14 - - WSW 1005,3 35 54 0,0
15.01.2020 13:00:00 8,6 5,2 - - 26 14 - - SW 1004,4 10 42 0,0
15.01.2020 12:00:00 7,4 5,4 - - 21 11 - - SW 1003,9 30 0 0,0
15.01.2020 11:00:00 7,0 5,4 - - 22 12 - - SW 1003,0 10 0 0,0
15.01.2020 10:00:00 6,8 5,1 - - 22 12 - - SSW 1001,9 45 0 0,0
15.01.2020 09:00:00 6,5 5,0 7,4 7,7 18 10 - - SSW 1000,8 10 0 0,0
15.01.2020 08:00:00 6,4 5,1 - - 18 10 - - SSW 999,7 10 0 0,0
15.01.2020 07:00:00 6,5 4,9 - - 15 8 - - SSW 999,2 50 0 0,0
15.01.2020 06:00:00 6,3 5,3 - - 15 8 - - SW 998,5 50 0 0,0
15.01.2020 05:00:00 6,3 3,8 - - 16 9 - - SW 997,5 45 0 0,0
15.01.2020 04:00:00 6,3 5,0 - - 21 11 - - WSW 997,1 45 0 0,2
15.01.2020 03:00:00 6,7 5,9 - - 21 11 - - W 996,4 12 0 0,6
15.01.2020 02:00:00 7,2 6,3 - - 24 13 - - W 995,5 8 0 0,8
15.01.2020 01:00:00 7,8 7,3 - - 13 7 - - WSW 994,1 8 0 1,4
15.01.2020 00:00:00 9,2 8,2 - - 26 14 - - SW 993,6 18 - 0,2
14.01.2020 23:00:00 9,6 8,6 - - 29 16 54 29 SW 993,0 21 0 0,6
14.01.2020 22:00:00 10,5 9,1 - - 39 21 55 30 WSW 992,1 4,7 0 0,6
14.01.2020 21:00:00 11,4 10,1 - - 35 19 55 30 SW 990,5 50 0 0,4
14.01.2020 20:00:00 11,3 10,0 - - 37 20 61 33 SW 989,6 15 0 0,6
14.01.2020 19:00:00 11,7 10,3 - - 41 22 67 36 SW 988,8 10 0 0,4
14.01.2020 18:00:00 12,5 11,1 - - 44 24 70 38 SW 987,7 18 0 2,2
14.01.2020 17:00:00 12,8 11,3 - - 54 29 81 44 SSW 986,9 1,5 0 0,2
14.01.2020 16:00:00 13,3 11,1 - - 50 27 72 39 SSW 986,1 40 0 0,0
14.01.2020 15:00:00 12,1 10,4 - - 46 25 76 41 SSW 986,4 45 0 0,0
14.01.2020 14:00:00 10,1 8,5 - - 41 22 61 33 S 987,4 24 0 0,2
14.01.2020 13:00:00 8,2 7,3 - - 34 18 46 25 S 989,6 7 0 0,6
14.01.2020 12:00:00 8,4 6,2 - - 26 14 - - S 992,3 10 0 0,0
14.01.2020 11:00:00 7,5 5,3 - - 24 13 - - S 993,9 10 0 0,0
14.01.2020 10:00:00 6,7 4,5 - - 24 13 - - S 994,8 13 0 0,0
14.01.2020 09:00:00 5,6 3,4 6,5 7,7 22 12 - - S 995,2 10 0 0,0
14.01.2020 08:00:00 5,3 3,2 - - 24 13 - - SSW 995,5 12 0 0,0
14.01.2020 07:00:00 5,0 3,4 - - 22 12 - - S 995,5 10 0 0,0
14.01.2020 06:00:00 5,9 4,0 - - 22 12 - - SSW 995,2 10 0 0,2
14.01.2020 05:00:00 6,3 3,9 - - 22 12 - - SSW 995,1 26 0 0,0
14.01.2020 04:00:00 6,5 4,3 - - 22 12 - - SSW 994,4 12 0 0,0
14.01.2020 03:00:00 6,7 4,2 - - 26 14 - - SSW 994,2 14 0 0,0
14.01.2020 02:00:00 6,1 4,3 - - 21 11 - - SSW 994,0 12 0 0,0
14.01.2020 01:00:00 6,4 4,3 - - 26 14 - - SSW 994,0 15 0 0,0
14.01.2020 00:00:00 6,3 4,2 - - 26 14 - - SSW 993,4 19 - 0,0
13.01.2020 23:00:00 6,6 4,7 - - 26 14 - - SSW 993,1 30 0 0,0
13.01.2020 22:00:00 6,5 4,7 - - 28 15 - - SSW 992,6 45 0 0,0
13.01.2020 21:00:00 6,1 4,3 - - 34 18 57 31 SW 992,5 11 0 1,2
13.01.2020 20:00:00 6,3 5,2 - - 39 21 78 42 WSW 992,7 12 0 2,4
13.01.2020 19:00:00 9,5 7,4 - - 48 26 68 37 S 991,4 45 0 0,2
13.01.2020 18:00:00 8,2 6,8 - - 39 21 61 33 S 993,0 28 0 0,2
13.01.2020 17:00:00 7,4 6,4 - - 37 20 54 29 S 995,1 23 0 0,0
13.01.2020 16:00:00 8,3 5,2 - - 37 20 57 31 S 997,0 35 0 0,0
13.01.2020 15:00:00 8,2 5,3 - - 37 20 54 29 S 999,3 10 0 0,0
13.01.2020 14:00:00 8,2 5,5 - - 31 17 50 27 S 1001,1 10 0 0,2
13.01.2020 13:00:00 8,1 5,4 - - 31 17 52 28 S 1003,4 10 0 0,0
13.01.2020 12:00:00 7,9 5,9 - - 29 16 46 25 S 1005,9 10 6 0,0
13.01.2020 11:00:00 7,2 5,7 - - 26 14 - - S 1007,8 10 30 0,0
13.01.2020 10:00:00 5,3 4,9 - - 18 10 - - S 1009,3 10 0 0,0
13.01.2020 09:00:00 4,3 3,9 6,7 7,7 16 9 - - S 1010,7 12 0 0,0
13.01.2020 08:00:00 4,9 4,4 - - 22 12 - - SSW 1011,8 16 0 0,0
13.01.2020 07:00:00 5,0 4,1 - - 21 11 - - SSW 1012,5 22 0 0,0
13.01.2020 06:00:00 3,6 3,1 - - 16 9 - - S 1013,0 13 0 0,0
13.01.2020 05:00:00 4,1 3,3 - - 18 10 - - SSW 1014,1 15 0 0,0
13.01.2020 04:00:00 4,4 3,4 - - 21 11 - - SSW 1014,8 17 0 0,0
13.01.2020 03:00:00 4,6 3,5 - - 18 10 - - SSW 1015,4 17 0 0,0
13.01.2020 02:00:00 3,5 2,8 - - 13 7 - - SSW 1016,0 15 0 0,0
13.01.2020 01:00:00 4,3 3,6 - - 16 9 - - SSW 1016,8 17 0 0,0
13.01.2020 00:00:00 4,3 3,7 - - 15 8 - - SSW 1017,5 17 - 0,0
12.01.2020 23:00:00 4,2 3,6 - - 15 8 - - SSW 1017,9 20 0 0,0
12.01.2020 22:00:00 3,5 2,9 - - 15 8 - - SW 1018,2 24 0 0,0
12.01.2020 21:00:00 3,6 2,3 - - 9 5 - - SSW 1018,3 40 0 0,0
12.01.2020 20:00:00 5,3 3,5 - - 13 7 - - SSW 1018,2 50 0 0,0
12.01.2020 19:00:00 5,0 3,5 - - 13 7 - - SW 1018,4 50 0 0,0
12.01.2020 18:00:00 5,5 3,2 - - 13 7 - - SW 1018,2 50 0 0,0
12.01.2020 17:00:00 6,2 4,0 - - 13 7 - - SW 1017,9 50 0 0,0
12.01.2020 16:00:00 6,6 3,9 - - 11 6 - - WSW 1017,4 50 30 0,0
12.01.2020 15:00:00 7,7 5,0 - - 18 10 - - W 1016,9 50 24 0,0
12.01.2020 14:00:00 7,4 5,9 - - 24 13 48 26 WNW 1015,9 50 0 0,0
12.01.2020 13:00:00 8,8 5,8 - - 26 14 57 31 W 1015,0 50 0 0,0
12.01.2020 12:00:00 9,3 6,7 - - 31 17 48 26 W 1014,1 50 42 0,0

tt = temperature
td = dewpoint
tt -20cm = temperature -20cm
tt -100cm = temperature -100cm
ff = wind speed
fx = gusts
dd = wind direction
ppp = reduced air pressure
vv = visibility
sd = sunshine duration
rr = precipitation

Next stations